SCP
4 3 3 3 3 4 3 2 2 4 4 3 2 1 1 0 1 1 0 0 0 0 0 0 0 0 0 0 0 0 0 0 0 0 0 0 0 0 0 0 0 0 0
0 1 4 4 3 4 4 3 3 4 5 4 3 2 2 2 1 1 0 0 0 0 0 0 0 0 0 0 0 0 0 0 0 0 0 0 0 0 0 0 0 0 0
0 0 2 4 4 4 3 3 3 4 5 6 4 3 3 3 2 1 0 0 0 0 0 0 0 0 0 0 0 0 0 0 0 0 0 0 0 0 0 0 0 0 0
0 0 0 0 2 4 4 4 3 3 3 3 4 4 3 3 2 1 0 0 0 0 0 0 0 0 0 0 0 0 0 0 0 0 0 0 0 0 0 0 0 0 0
0 0 0 0 0 2 3 3 2 1 1 1 2 2 1 0 0 0 0 0 0 0 0 0 0 0 0 0 0 0 0 0 0 0 0 0 0 0 0 0 0 0 0
0 0 0 0 0 1 1 1 0 0 0 1 1 1 0 0 0 0 0 0 0 0 0 0 0 0 0 0 0 0 0 0 0 0 0 0 0 0 0 0 0 0 0
0 0 0 0 0 0 0 1 1 0 0 0 0 0 0 0 0 0 0 0 -0 -0 -0 0 0 0 0 0 0 0 0 0 0 0 0 0 0 0 0 0 0 0 0
0 0 0 0 0 1 1 0 0 0 0 1 0 0 0 0 0 0 0 0 0 -0 0 0 0 0 0 0 0 0 0 0 0 0 0 0 0 0 0 0 0 0 0
0 0 0 0 0 0 0 1 0 1 0 0 0 0 0 0 0 0 0 0 0 0 0 0 0 0 0 0 0 0 0 0 0 0 0 0 0 0 0 0 0 0 0
0 0 0 0 0 1 1 1 1 1 0 0 0 0 0 0 0 0 0 0 0 0 0 0 0 0 0 0 0 0 0 0 0 0 0 0 0 0 0 0 0 0 0
0 0 0 0 0 1 1 1 1 1 0 0 0 0 0 0 0 0 0 0 0 0 0 0 0 0 0 0 0 0 0 0 0 0 0 0 0 0 0 0 0 0 0
0 0 0 0 0 0 1 1 1 1 0 0 0 0 0 0 0 0 0 0 0 0 0 0 0 0 0 0 0 0 0 0 0 0 0 0 0 0 0 0 0 0 0
0 0 0 0 0 0 0 0 0 0 0 0 0 0 0 0 0 0 0 0 0 0 0 0 0 0 0 0 0 0 0 0 0 0 0 0 0 0 0 0 0 0 0
0 0 0 0 0 0 0 0 0 0 0 0 0 0 0 0 0 0 0 0 0 0 0 0 0 0 0 0 0 0 0 0 0 0 0 0 0 0 0 0 0 0 0
0 0 0 0 0 0 0 0 0 0 0 0 0 0 0 0 0 0 0 0 0 0 0 0 0 0 0 0 0 0 0 0 0 0 0 0 0 0 0 0 0 0 0
0 0 0 0 0 0 0 0 0 0 0 0 0 0 0 0 0 0 0 0 0 0 0 0 0 0 0 0 0 0 0 0 0 0 0 0 0 0 0 0 0 0 0
0 0 0 0 0 0 0 0 0 0 0 0 0 0 0 0 0 0 0 0 0 0 0 0 0 0 0 0 0 0 0 0 0 0 0 0 0 0 0 0 0 0 0
0 0 0 0 0 0 0 0 0 0 0 0 0 0 0 0 0 0 0 0 0 0 0 0 0 0 0 0 0 0 0 0 0 0 0 0 0 0 0 0 0 0 0
0 0 0 0 0 0 0 0 0 0 0 0 0 0 0 0 0 0 0 0 0 0 0 0 0 0 0 0 0 0 0 0 0 0 0 0 0 0 0 0 0 0 0
0 -0 0 0 0 0 0 0 0 0 0 0 0 0 0 0 0 0 0 0 0 0 0 0 0 0 0 0 0 0 0 0 0 0 0 0 0 0 0 0 0 0 0
0 0 0 0 0 0 0 0 0 0 0 0 0 0 0 0 0 0 0 0 0 0 0 0 0 0 0 0 0 0 0 0 0 0 0 0 0 0 0 0 0 0 0
0 0 0 0 0 0 0 0 0 0 0 0 0 0 0 0 0 0 0 0 0 0 0 0 0 0 0 0 0 0 0 0 0 0 0 0 0 0 0 0 0 0 0
0 0 0 0 0 0 0 0 0 0 0 0 0 0 0 0 0 0 0 0 0 0 0 0 0 0 0 0 0 0 0 0 0 0 0 0 0 0 0 0 0 0 0
0 -0 0 0 0 0 0 0 0 0 0 0 0 0 0 0 0 0 0 0 0 0 0 0 0 0 0 0 0 0 0 0 0 0 0 0 0 0 0 0 0 0 0
-0 0 0 0 0 0 0 0 0 0 0 0 0 0 0 0 0 0 0 0 0 0 0 0 0 0 0 0 0 0 0 0 0 0 0 0 0 0 0 0 0 0 0
0 -0 -0 -0 0 0 0 0 0 0 0 0 0 0 0 0 0 0 0 0 0 0 0 0 0 0 0 0 0 0 0 0 0 0 0 0 0 0 0 0 0 0 0
Wind_Speed_500mb
63 69 65 71 87 89 91 95 88 85 82 80 77 73 82 83 90 83 86 81 74 61 45 44 43 36 31 29 27 29 28 23 23 21 27 22 15 7 10 15 8 2 4
36 61 76 80 81 83 90 92 94 91 86 80 75 75 76 93 86 96 91 79 75 59 47 49 43 30 27 28 27 28 27 25 23 25 27 21 17 11 10 9 8 7 7
21 24 59 68 76 83 83 81 91 94 88 80 74 70 76 89 95 95 97 78 71 63 48 49 32 26 20 28 29 30 28 25 23 23 23 18 18 12 10 9 15 9 9
27 34 6 49 71 77 78 78 81 87 80 74 75 72 75 78 80 81 80 59 61 57 44 22 22 20 20 26 30 29 29 26 24 22 20 20 18 13 10 23 21 13 12
17 16 20 14 23 63 75 73 71 68 72 70 67 69 69 68 74 71 52 63 45 48 30 16 16 22 25 33 31 31 30 27 26 25 24 24 20 16 17 29 27 15 13
17 23 16 17 14 19 56 67 64 63 66 67 66 62 64 55 64 54 34 40 49 40 46 59 52 38 37 41 36 35 32 24 23 26 27 25 22 17 20 27 33 23 12
20 23 29 20 27 28 32 56 64 61 56 57 60 57 65 73 59 65 81 68 71 86 80 57 63 54 51 43 37 35 33 27 26 22 23 27 19 20 19 19 19 22 19
22 14 22 28 30 23 20 43 57 60 58 56 51 49 55 75 82 83 63 58 76 92 81 71 71 72 54 42 35 33 29 26 25 23 21 19 20 19 19 16 14 13 9
34 26 20 21 22 14 10 20 48 56 57 60 64 76 77 78 75 68 68 78 72 84 87 80 57 52 47 43 33 27 28 29 30 29 24 20 17 15 14 13 15 14 8
31 21 23 25 26 28 31 30 37 51 53 57 60 79 84 82 72 76 87 67 69 79 65 61 51 49 45 36 30 30 36 33 34 31 26 20 14 10 9 8 7 6 13
19 21 28 30 26 34 42 50 53 46 54 58 62 76 82 70 80 85 79 77 78 80 73 65 57 48 42 36 31 33 31 35 34 28 22 18 12 13 13 12 18 18 20
12 19 28 28 20 25 35 39 45 61 62 67 77 83 84 73 64 75 69 75 76 72 66 59 52 51 43 39 38 38 39 36 31 24 21 16 16 16 13 13 19 14 14
20 21 25 31 26 21 32 44 36 69 78 77 79 85 70 63 57 68 57 74 72 60 64 50 53 49 43 44 42 38 43 38 28 26 20 19 17 14 13 12 16 9 9
16 18 28 26 30 27 31 42 46 63 75 82 82 84 83 73 81 87 69 67 69 63 57 58 51 47 46 45 45 44 37 30 27 22 18 19 15 12 12 13 13 9 9
17 27 29 30 28 23 33 45 39 56 74 84 87 86 90 90 83 78 72 68 61 58 63 57 54 50 52 50 47 41 40 36 29 21 21 22 16 13 16 14 8 10 7
12 18 27 27 21 23 27 40 45 59 70 78 79 81 97 89 86 74 64 61 56 56 57 56 55 55 57 57 54 48 39 30 25 22 23 21 15 12 14 13 12 12 9
12 24 30 27 20 23 24 23 41 44 54 70 82 89 90 91 80 69 59 54 52 55 54 59 62 62 57 51 43 37 34 29 25 23 24 22 14 12 11 15 14 13 9
11 22 29 29 30 31 44 52 53 67 67 63 53 50 63 67 63 60 58 54 60 55 59 65 62 55 49 44 37 33 30 31 29 25 24 20 14 8 10 10 16 17 11
11 16 21 28 36 37 41 53 61 56 64 71 71 70 66 64 57 53 50 56 66 65 61 58 53 48 42 36 32 28 28 28 26 26 23 15 12 10 10 13 20 17 10
16 13 18 22 25 28 34 48 62 73 79 77 73 70 66 64 63 64 61 60 64 62 58 54 47 40 33 32 31 31 29 27 26 23 18 15 13 11 11 13 18 15 10
22 20 23 26 28 35 46 64 72 79 80 78 73 65 60 64 71 73 63 58 55 52 50 48 43 32 29 28 25 26 26 27 25 21 19 17 16 14 13 15 18 16 12
20 19 22 24 31 37 45 54 61 68 68 69 66 61 59 59 58 60 61 58 54 51 53 49 37 26 22 22 23 24 23 22 25 23 22 20 17 16 14 14 16 15 12
26 24 25 30 34 40 46 49 55 60 61 63 64 60 62 69 75 72 64 57 50 40 32 27 24 29 30 23 19 13 16 22 24 24 20 19 17 15 14 14 13 12 9
23 21 25 26 31 38 45 52 55 56 58 57 54 50 46 48 56 53 45 35 27 32 32 30 34 34 28 21 18 18 19 22 22 24 19 17 17 16 12 12 12 11 9
25 26 23 21 25 33 36 43 46 49 54 55 54 50 43 37 32 28 29 33 32 26 31 31 36 32 25 21 18 22 23 21 21 21 20 16 16 13 10 10 10 9 9
18 22 24 26 29 32 39 36 31 33 34 38 35 30 34 33 28 24 22 27 26 29 32 32 30 28 29 27 23 24 27 24 20 18 16 14 13 13 11 9 10 12 12
Wind_Direction_500mb
226 222 223 230 233 234 234 232 243 248 249 250 250 250 249 243 238 232 235 234 233 225 229 236 240 236 240 241 239 240 250 261 257 241 228 231 248 264 317 331 352 224 230
231 231 234 233 233 237 239 239 240 245 247 250 251 251 254 247 243 231 233 231 222 218 219 225 229 228 243 250 241 248 257 267 261 241 231 225 228 240 294 332 142 168 142
58 232 231 240 241 241 242 247 245 246 248 247 250 254 255 250 246 236 230 226 221 224 209 213 222 229 244 249 249 249 266 273 268 250 228 220 227 237 289 170 169 167 172
41 56 305 233 232 238 239 242 249 248 246 250 254 255 251 251 240 223 216 208 216 214 199 194 230 224 233 244 252 258 267 270 257 230 234 236 224 255 244 173 176 179 198
323 21 35 43 246 231 230 236 240 242 248 250 252 250 245 238 226 170 172 172 209 213 185 195 241 255 289 254 249 259 265 260 243 234 244 239 237 256 211 185 179 174 194
301 286 321 340 344 271 226 230 227 232 244 249 248 249 239 216 173 171 219 186 202 207 204 199 222 252 269 245 247 252 258 249 244 239 241 241 253 228 203 193 194 186 174
317 262 279 310 291 320 236 218 220 225 234 244 252 249 228 200 186 167 179 187 226 209 209 219 214 216 248 238 246 250 255 248 236 235 244 250 236 196 191 190 200 210 224
303 297 276 261 275 300 341 221 222 226 229 229 227 222 212 205 197 195 211 212 212 220 212 207 204 224 236 233 237 245 240 232 224 218 206 211 194 197 198 201 193 186 191
286 290 264 253 219 241 316 264 230 230 225 224 216 207 190 184 197 216 214 202 216 217 214 211 211 221 230 228 227 224 210 197 184 172 173 173 169 169 173 191 201 201 208
281 272 246 239 232 210 234 273 256 233 229 224 226 215 215 219 217 202 197 208 205 212 194 193 211 222 220 223 212 208 195 181 176 169 166 163 155 157 155 170 171 174 169
278 253 235 222 237 220 222 238 247 243 233 226 228 215 214 206 196 199 202 204 211 192 187 193 201 201 201 208 200 188 183 177 172 168 170 167 169 169 159 152 132 116 102
268 252 232 219 212 216 216 223 224 229 220 215 209 209 195 199 206 209 213 216 197 193 192 192 199 192 193 193 180 178 180 181 180 178 174 176 174 177 152 148 139 120 110
300 281 230 211 213 213 219 218 216 206 208 205 207 209 194 182 199 195 203 204 191 195 190 195 190 190 187 178 179 183 184 184 185 177 185 179 180 172 172 156 156 157 135
290 210 200 198 196 202 194 205 196 196 200 200 199 199 190 184 189 197 185 184 181 182 179 180 185 185 180 180 180 177 179 177 178 189 192 182 173 162 182 170 153 149 155
255 201 190 195 200 200 192 190 196 206 207 207 198 198 189 184 188 180 175 175 174 177 177 176 175 174 177 179 176 173 167 171 189 203 192 185 168 163 164 172 183 185 165
186 204 190 183 179 186 194 180 185 192 191 195 202 200 185 180 173 169 170 168 169 178 177 171 169 173 173 171 168 167 174 183 194 190 181 188 172 148 158 180 187 194 190
155 162 170 169 172 183 188 186 165 172 179 176 181 172 161 151 153 156 158 158 170 175 177 167 166 168 167 166 170 177 176 180 185 187 182 185 171 140 143 195 193 201 185
140 158 163 166 178 180 173 168 160 156 157 151 153 156 156 150 149 150 154 159 158 170 168 163 165 167 166 167 172 175 178 180 178 180 181 179 154 145 159 162 181 203 187
114 142 158 168 168 164 154 154 158 157 146 131 128 129 132 135 137 142 149 158 154 156 157 158 160 159 159 164 169 173 181 177 178 180 180 171 156 173 160 153 167 175 172
72 102 133 142 145 144 145 144 142 141 137 137 138 137 140 143 141 142 149 152 153 153 154 154 154 150 154 160 162 171 172 172 172 177 168 166 158 158 164 157 163 166 163
80 102 113 116 123 128 133 137 139 139 139 140 139 142 145 145 144 146 151 158 159 157 155 160 158 156 160 158 165 173 174 168 172 171 171 172 160 160 154 151 157 158 153
75 89 101 106 110 115 126 128 132 132 130 131 132 138 142 140 144 149 149 146 146 149 157 166 174 177 174 179 171 170 170 175 173 172 172 170 164 165 152 141 157 159 158
56 78 94 106 116 118 121 126 130 129 128 131 139 145 147 142 143 142 145 147 150 158 170 180 187 171 151 149 144 167 171 177 176 174 177 177 175 167 158 155 164 166 166
68 75 90 110 122 127 127 128 126 128 129 132 137 144 153 156 150 148 152 162 189 167 164 171 158 154 156 167 170 169 175 177 173 169 181 185 184 179 165 150 155 151 154
70 87 103 120 138 141 143 141 139 136 134 135 134 135 136 141 147 165 165 140 133 133 143 149 160 170 179 191 181 174 176 181 175 170 179 183 186 177 163 150 144 153 167
90 82 97 114 130 137 141 141 147 159 163 161 165 173 162 161 151 134 130 158 165 164 164 170 184 196 204 199 186 178 175 177 169 162 171 182 186 185 176 162 150 169 178
Wind_Speed_850mb
63 69 65 71 87 89 91 95 88 85 82 80 77 73 82 83 90 83 86 81 74 61 45 44 43 36 31 29 27 29 28 23 23 21 27 22 15 7 10 15 8 2 4
36 61 76 80 81 83 90 92 94 91 86 80 75 75 76 93 86 96 91 79 75 59 47 49 43 30 27 28 27 28 27 25 23 25 27 21 17 11 10 9 8 7 7
21 24 59 68 76 83 83 81 91 94 88 80 74 70 76 89 95 95 97 78 71 63 48 49 32 26 20 28 29 30 28 25 23 23 23 18 18 12 10 9 15 9 9
27 34 6 49 71 77 78 78 81 87 80 74 75 72 75 78 80 81 80 59 61 57 44 22 22 20 20 26 30 29 29 26 24 22 20 20 18 13 10 23 21 13 12
17 16 20 14 23 63 75 73 71 68 72 70 67 69 69 68 74 71 52 63 45 48 30 16 16 22 25 33 31 31 30 27 26 25 24 24 20 16 17 29 27 15 13
17 23 16 17 14 19 56 67 64 63 66 67 66 62 64 55 64 54 34 40 49 40 46 59 52 38 37 41 36 35 32 24 23 26 27 25 22 17 20 27 33 23 12
20 23 29 20 27 28 32 56 64 61 56 57 60 57 65 73 59 65 81 68 71 86 80 57 63 54 51 43 37 35 33 27 26 22 23 27 19 20 19 19 19 22 19
22 14 22 28 30 23 20 43 57 60 58 56 51 49 55 75 82 83 63 58 76 92 81 71 71 72 54 42 35 33 29 26 25 23 21 19 20 19 19 16 14 13 9
34 26 20 21 22 14 10 20 48 56 57 60 64 76 77 78 75 68 68 78 72 84 87 80 57 52 47 43 33 27 28 29 30 29 24 20 17 15 14 13 15 14 8
31 21 23 25 26 28 31 30 37 51 53 57 60 79 84 82 72 76 87 67 69 79 65 61 51 49 45 36 30 30 36 33 34 31 26 20 14 10 9 8 7 6 13
19 21 28 30 26 34 42 50 53 46 54 58 62 76 82 70 80 85 79 77 78 80 73 65 57 48 42 36 31 33 31 35 34 28 22 18 12 13 13 12 18 18 20
12 19 28 28 20 25 35 39 45 61 62 67 77 83 84 73 64 75 69 75 76 72 66 59 52 51 43 39 38 38 39 36 31 24 21 16 16 16 13 13 19 14 14
20 21 25 31 26 21 32 44 36 69 78 77 79 85 70 63 57 68 57 74 72 60 64 50 53 49 43 44 42 38 43 38 28 26 20 19 17 14 13 12 16 9 9
16 18 28 26 30 27 31 42 46 63 75 82 82 84 83 73 81 87 69 67 69 63 57 58 51 47 46 45 45 44 37 30 27 22 18 19 15 12 12 13 13 9 9
17 27 29 30 28 23 33 45 39 56 74 84 87 86 90 90 83 78 72 68 61 58 63 57 54 50 52 50 47 41 40 36 29 21 21 22 16 13 16 14 8 10 7
12 18 27 27 21 23 27 40 45 59 70 78 79 81 97 89 86 74 64 61 56 56 57 56 55 55 57 57 54 48 39 30 25 22 23 21 15 12 14 13 12 12 9
12 24 30 27 20 23 24 23 41 44 54 70 82 89 90 91 80 69 59 54 52 55 54 59 62 62 57 51 43 37 34 29 25 23 24 22 14 12 11 15 14 13 9
11 22 29 29 30 31 44 52 53 67 67 63 53 50 63 67 63 60 58 54 60 55 59 65 62 55 49 44 37 33 30 31 29 25 24 20 14 8 10 10 16 17 11
11 16 21 28 36 37 41 53 61 56 64 71 71 70 66 64 57 53 50 56 66 65 61 58 53 48 42 36 32 28 28 28 26 26 23 15 12 10 10 13 20 17 10
16 13 18 22 25 28 34 48 62 73 79 77 73 70 66 64 63 64 61 60 64 62 58 54 47 40 33 32 31 31 29 27 26 23 18 15 13 11 11 13 18 15 10
22 20 23 26 28 35 46 64 72 79 80 78 73 65 60 64 71 73 63 58 55 52 50 48 43 32 29 28 25 26 26 27 25 21 19 17 16 14 13 15 18 16 12
20 19 22 24 31 37 45 54 61 68 68 69 66 61 59 59 58 60 61 58 54 51 53 49 37 26 22 22 23 24 23 22 25 23 22 20 17 16 14 14 16 15 12
26 24 25 30 34 40 46 49 55 60 61 63 64 60 62 69 75 72 64 57 50 40 32 27 24 29 30 23 19 13 16 22 24 24 20 19 17 15 14 14 13 12 9
23 21 25 26 31 38 45 52 55 56 58 57 54 50 46 48 56 53 45 35 27 32 32 30 34 34 28 21 18 18 19 22 22 24 19 17 17 16 12 12 12 11 9
25 26 23 21 25 33 36 43 46 49 54 55 54 50 43 37 32 28 29 33 32 26 31 31 36 32 25 21 18 22 23 21 21 21 20 16 16 13 10 10 10 9 9
18 22 24 26 29 32 39 36 31 33 34 38 35 30 34 33 28 24 22 27 26 29 32 32 30 28 29 27 23 24 27 24 20 18 16 14 13 13 11 9 10 12 12
Wind_Direction_850mb
226 222 223 230 233 234 234 232 243 248 249 250 250 250 249 243 238 232 235 234 233 225 229 236 240 236 240 241 239 240 250 261 257 241 228 231 248 264 317 331 352 224 230
231 231 234 233 233 237 239 239 240 245 247 250 251 251 254 247 243 231 233 231 222 218 219 225 229 228 243 250 241 248 257 267 261 241 231 225 228 240 294 332 142 168 142
58 232 231 240 241 241 242 247 245 246 248 247 250 254 255 250 246 236 230 226 221 224 209 213 222 229 244 249 249 249 266 273 268 250 228 220 227 237 289 170 169 167 172
41 56 305 233 232 238 239 242 249 248 246 250 254 255 251 251 240 223 216 208 216 214 199 194 230 224 233 244 252 258 267 270 257 230 234 236 224 255 244 173 176 179 198
323 21 35 43 246 231 230 236 240 242 248 250 252 250 245 238 226 170 172 172 209 213 185 195 241 255 289 254 249 259 265 260 243 234 244 239 237 256 211 185 179 174 194
301 286 321 340 344 271 226 230 227 232 244 249 248 249 239 216 173 171 219 186 202 207 204 199 222 252 269 245 247 252 258 249 244 239 241 241 253 228 203 193 194 186 174
317 262 279 310 291 320 236 218 220 225 234 244 252 249 228 200 186 167 179 187 226 209 209 219 214 216 248 238 246 250 255 248 236 235 244 250 236 196 191 190 200 210 224
303 297 276 261 275 300 341 221 222 226 229 229 227 222 212 205 197 195 211 212 212 220 212 207 204 224 236 233 237 245 240 232 224 218 206 211 194 197 198 201 193 186 191
286 290 264 253 219 241 316 264 230 230 225 224 216 207 190 184 197 216 214 202 216 217 214 211 211 221 230 228 227 224 210 197 184 172 173 173 169 169 173 191 201 201 208
281 272 246 239 232 210 234 273 256 233 229 224 226 215 215 219 217 202 197 208 205 212 194 193 211 222 220 223 212 208 195 181 176 169 166 163 155 157 155 170 171 174 169
278 253 235 222 237 220 222 238 247 243 233 226 228 215 214 206 196 199 202 204 211 192 187 193 201 201 201 208 200 188 183 177 172 168 170 167 169 169 159 152 132 116 102
268 252 232 219 212 216 216 223 224 229 220 215 209 209 195 199 206 209 213 216 197 193 192 192 199 192 193 193 180 178 180 181 180 178 174 176 174 177 152 148 139 120 110
300 281 230 211 213 213 219 218 216 206 208 205 207 209 194 182 199 195 203 204 191 195 190 195 190 190 187 178 179 183 184 184 185 177 185 179 180 172 172 156 156 157 135
290 210 200 198 196 202 194 205 196 196 200 200 199 199 190 184 189 197 185 184 181 182 179 180 185 185 180 180 180 177 179 177 178 189 192 182 173 162 182 170 153 149 155
255 201 190 195 200 200 192 190 196 206 207 207 198 198 189 184 188 180 175 175 174 177 177 176 175 174 177 179 176 173 167 171 189 203 192 185 168 163 164 172 183 185 165
186 204 190 183 179 186 194 180 185 192 191 195 202 200 185 180 173 169 170 168 169 178 177 171 169 173 173 171 168 167 174 183 194 190 181 188 172 148 158 180 187 194 190
155 162 170 169 172 183 188 186 165 172 179 176 181 172 161 151 153 156 158 158 170 175 177 167 166 168 167 166 170 177 176 180 185 187 182 185 171 140 143 195 193 201 185
140 158 163 166 178 180 173 168 160 156 157 151 153 156 156 150 149 150 154 159 158 170 168 163 165 167 166 167 172 175 178 180 178 180 181 179 154 145 159 162 181 203 187
114 142 158 168 168 164 154 154 158 157 146 131 128 129 132 135 137 142 149 158 154 156 157 158 160 159 159 164 169 173 181 177 178 180 180 171 156 173 160 153 167 175 172
72 102 133 142 145 144 145 144 142 141 137 137 138 137 140 143 141 142 149 152 153 153 154 154 154 150 154 160 162 171 172 172 172 177 168 166 158 158 164 157 163 166 163
80 102 113 116 123 128 133 137 139 139 139 140 139 142 145 145 144 146 151 158 159 157 155 160 158 156 160 158 165 173 174 168 172 171 171 172 160 160 154 151 157 158 153
75 89 101 106 110 115 126 128 132 132 130 131 132 138 142 140 144 149 149 146 146 149 157 166 174 177 174 179 171 170 170 175 173 172 172 170 164 165 152 141 157 159 158
56 78 94 106 116 118 121 126 130 129 128 131 139 145 147 142 143 142 145 147 150 158 170 180 187 171 151 149 144 167 171 177 176 174 177 177 175 167 158 155 164 166 166
68 75 90 110 122 127 127 128 126 128 129 132 137 144 153 156 150 148 152 162 189 167 164 171 158 154 156 167 170 169 175 177 173 169 181 185 184 179 165 150 155 151 154
70 87 103 120 138 141 143 141 139 136 134 135 134 135 136 141 147 165 165 140 133 133 143 149 160 170 179 191 181 174 176 181 175 170 179 183 186 177 163 150 144 153 167
90 82 97 114 130 137 141 141 147 159 163 161 165 173 162 161 151 134 130 158 165 164 164 170 184 196 204 199 186 178 175 177 169 162 171 182 186 185 176 162 150 169 178